This is the latest recevied weather packets stored in our database for station/object WC4PEM-1. If no packets are shown the sender has not sent any weather packets the latest 10 day(s).
| Time | Temp. | Humidity | Pressure | Rain* | Wind** | Luminosity | Snow |
|---|---|---|---|---|---|---|---|
| 1777462421 | 18.33° C | 92% | 1015.9 hPa | 0 mm | - | 84 W/m² | - |
| 1777462283 | 17.78° C | 92% | 1015.8 hPa | 0 mm | - | 60 W/m² | - |
| 1777462121 | 17.78° C | 92% | 1015.8 hPa | 0 mm | - | 60 W/m² | - |
| 1777461821 | 17.22° C | 91% | 1015.7 hPa | 0 mm | - | 47 W/m² | - |
| 1777461628 | 17.22° C | 91% | 1015.6 hPa | 0 mm | - | 37 W/m² | - |
| 1777461521 | 17.22° C | 91% | 1015.6 hPa | 0 mm | - | 37 W/m² | - |
| 1777461221 | 17.22° C | 90% | 1015.5 hPa | 0 mm | - | 32 W/m² | - |
| 1777460921 | 17.22° C | 90% | 1015.4 hPa | 0 mm | - | 25 W/m² | - |
| 1777460621 | 17.22° C | 90% | 1015.5 hPa | 0 mm | - | 19 W/m² | - |
| 1777460321 | 17.22° C | 90% | 1015.5 hPa | 0 mm | - | 12 W/m² | - |
| 1777460021 | 17.22° C | 90% | 1015.4 hPa | 0 mm | - | 7 W/m² | - |
| 1777459721 | 17.22° C | 90% | 1015.3 hPa | 0 mm | - | 5 W/m² | - |
| 1777459421 | 17.22° C | 90% | 1015.2 hPa | 0 mm | - | 0 W/m² | - |
| 1777459121 | 17.22° C | 91% | 1015.1 hPa | 0 mm | - | 0 W/m² | - |
| 1777458821 | 17.22° C | 91% | 1015 hPa | 0 mm | - | 0 W/m² | - |
| 1777458521 | 17.22° C | 91% | 1014.8 hPa | 0 mm | - | 0 W/m² | - |
| 1777458221 | 17.22° C | 91% | 1014.8 hPa | 0 mm | - | 0 W/m² | - |
| 1777457922 | 16.67° C | 89% | 1014.9 hPa | 0 mm | - | 0 W/m² | - |
| 1777457621 | 16.67° C | 88% | 1015 hPa | 0 mm | - | 0 W/m² | - |
| 1777457321 | 17.22° C | 89% | 1014.8 hPa | 0 mm | - | 0 W/m² | - |
| 1777457021 | 17.22° C | 90% | 1014.9 hPa | 0 mm | - | 0 W/m² | - |
| 1777456721 | 17.22° C | 90% | 1015.1 hPa | 0 mm | - | 0 W/m² | - |
| 1777456421 | 17.22° C | 89% | 1015.2 hPa | 0 mm | - | 0 W/m² | - |
| 1777456339 | 17.22° C | 89% | 1015.1 hPa | 0 mm | - | 0 W/m² | - |
| 1777456121 | 17.22° C | 89% | 1015.1 hPa | 0 mm | - | 0 W/m² | - |
* Rain latest hour (hover to see other rain measurements)
** Current wind speed in m/s (hover to see current wind gust speed)